LBT475 DAAG-DTTA

Flight info

Callsign LBT475
Flight time 0h 57m
Altitude 39000
Route BJA1C BJA UA411 MORJA UM978 KEMIR UA411 TUC
Aircraft A20N/M-SDE2E3FGHIRWXY/LB1

Departure

Time 2026-05-07 19:43
Airport Houari Boumediene Airport (DAAG)

Arrival

Time 2026-05-07 20:40
Airport Tunis Carthage International Airport (DTTA)
Time Latitude Longitude Altitude Speed Heading
2026-05-07 19:38 36.69647 3.21627 73 ft 0 kts 115°
2026-05-07 19:39 36.69637 3.21652 70 ft 5 kts 115°
2026-05-07 19:39 36.69620 3.21695 64 ft 5 kts 120°
2026-05-07 19:40 36.69596 3.21722 63 ft 4 kts 149°
2026-05-07 19:40 36.69571 3.21733 65 ft 4 kts 163°
2026-05-07 19:40 36.69547 3.21742 67 ft 4 kts 163°
2026-05-07 19:40 36.69512 3.21755 71 ft 10 kts 162°
2026-05-07 19:41 36.69444 3.21783 70 ft 10 kts 158°
2026-05-07 19:41 36.69395 3.21837 67 ft 9 kts 122°
2026-05-07 19:41 36.69384 3.21903 76 ft 6 kts 85°
2026-05-07 19:41 36.69386 3.21938 78 ft 2 kts 85°
2026-05-07 19:42 36.69387 3.21949 78 ft 3 kts 86°
2026-05-07 19:42 36.69389 3.21998 81 ft 17 kts 84°
2026-05-07 19:42 36.69528 3.22250 83 ft 68 kts 52°
2026-05-07 19:42 36.69961 3.22962 84 ft 136 kts 53°
2026-05-07 19:43 36.70626 3.24055 280 ft 170 kts 53°
2026-05-07 19:43 36.71366 3.25277 784 ft 182 kts 52°
2026-05-07 19:43 36.72009 3.26687 1312 ft 196 kts 77°
2026-05-07 19:43 36.72135 3.28455 1740 ft 220 kts 88°
2026-05-07 19:44 36.72147 3.30523 2106 ft 254 kts 91°
2026-05-07 19:44 36.72122 3.32791 2891 ft 266 kts 91°
2026-05-07 19:44 36.72100 3.35102 3850 ft 270 kts 90°
2026-05-07 19:44 36.72088 3.37425 4780 ft 277 kts 90°
2026-05-07 19:45 36.72083 3.39854 5729 ft 283 kts 90°
2026-05-07 19:45 36.72083 3.42331 6716 ft 288 kts 90°
2026-05-07 19:45 36.72087 3.44855 7676 ft 294 kts 90°
2026-05-07 19:45 36.72092 3.47432 8636 ft 300 kts 90°
2026-05-07 19:46 36.72097 3.50059 9578 ft 306 kts 90°
2026-05-07 19:46 36.72103 3.52753 10351 ft 318 kts 90°
2026-05-07 19:46 36.72106 3.55625 10742 ft 342 kts 91°
2026-05-07 19:46 36.72107 3.58658 11377 ft 355 kts 91°
2026-05-07 19:47 36.72107 3.61762 12212 ft 361 kts 91°
2026-05-07 19:47 36.72109 3.64879 13051 ft 367 kts 91°
2026-05-07 19:47 36.72112 3.68085 13883 ft 373 kts 91°
2026-05-07 19:47 36.72115 3.71345 14619 ft 379 kts 92°
2026-05-07 19:48 36.72118 3.74669 15321 ft 387 kts 92°
2026-05-07 19:48 36.72121 3.78057 16018 ft 394 kts 92°
2026-05-07 19:48 36.72122 3.81502 16731 ft 401 kts 92°
2026-05-07 19:48 36.72123 3.85007 17450 ft 407 kts 93°
2026-05-07 19:49 36.72123 3.88556 18181 ft 412 kts 93°
2026-05-07 19:49 36.72122 3.92159 18765 ft 420 kts 93°
2026-05-07 19:49 36.72118 3.95837 19304 ft 427 kts 92°
2026-05-07 19:49 36.72111 3.99512 19889 ft 432 kts 92°
2026-05-07 19:50 36.72101 4.03286 20465 ft 438 kts 92°
2026-05-07 19:50 36.72088 4.07106 21044 ft 443 kts 92°
2026-05-07 19:50 36.72073 4.10967 21609 ft 449 kts 91°
2026-05-07 19:50 36.72057 4.14878 22178 ft 454 kts 91°
2026-05-07 19:51 36.72040 4.18853 22733 ft 459 kts 91°
2026-05-07 19:51 36.72021 4.22860 23262 ft 465 kts 91°
2026-05-07 19:51 36.72000 4.26944 23509 ft 478 kts 91°
2026-05-07 19:51 36.71977 4.31098 23705 ft 490 kts 91°
2026-05-07 19:52 36.71951 4.35396 23879 ft 501 kts 91°
2026-05-07 19:52 36.71923 4.39783 24075 ft 511 kts 91°
2026-05-07 19:52 36.71892 4.44255 24257 ft 521 kts 91°
2026-05-07 19:52 36.71861 4.48815 24423 ft 530 kts 91°
2026-05-07 19:53 36.71827 4.53452 24590 ft 538 kts 91°
2026-05-07 19:53 36.71792 4.58157 24732 ft 545 kts 91°
2026-05-07 19:53 36.71755 4.62903 25042 ft 549 kts 91°
2026-05-07 19:53 36.71716 4.67662 25416 ft 550 kts 91°
2026-05-07 19:54 36.71678 4.72390 26223 ft 540 kts 91°
2026-05-07 19:54 36.71642 4.77037 27153 ft 529 kts 91°
2026-05-07 19:54 36.71606 4.81574 28118 ft 518 kts 91°
2026-05-07 19:54 36.71572 4.86014 29082 ft 507 kts 91°
2026-05-07 19:55 36.71537 4.90374 29876 ft 501 kts 91°
2026-05-07 19:55 36.71502 4.94662 30340 ft 500 kts 91°
2026-05-07 19:55 36.71463 4.99008 30719 ft 501 kts 91°
2026-05-07 19:55 36.71423 5.03348 31084 ft 502 kts 92°
2026-05-07 19:56 36.71441 5.07697 31543 ft 501 kts 87°
2026-05-07 19:56 36.71767 5.12012 32054 ft 499 kts 83°
2026-05-07 19:56 36.72232 5.16277 32521 ft 495 kts 84°
2026-05-07 19:56 36.72506 5.20546 32965 ft 493 kts 88°
2026-05-07 19:57 36.72711 5.24797 33388 ft 491 kts 89°
2026-05-07 19:57 36.72890 5.29034 33801 ft 489 kts 89°
2026-05-07 19:57 36.73068 5.33261 34168 ft 487 kts 89°
2026-05-07 19:57 36.73190 5.36054 34369 ft 486 kts 89°
2026-05-07 19:58 36.73382 5.40265 34613 ft 487 kts 89°
2026-05-07 19:58 36.73584 5.44486 34841 ft 488 kts 89°
2026-05-07 19:58 36.74008 5.52991 34907 ft 490 kts 90°
2026-05-07 19:59 36.74420 5.61190 34904 ft 489 kts 90°
2026-05-07 19:59 36.74838 5.69649 34906 ft 488 kts 90°
2026-05-07 20:00 36.75248 5.78102 34906 ft 487 kts 90°
2026-05-07 20:00 36.75650 5.86529 34906 ft 487 kts 91°
2026-05-07 20:01 36.76045 5.94971 34918 ft 487 kts 91°
2026-05-07 20:01 36.76433 6.03354 34911 ft 487 kts 91°
2026-05-07 20:02 36.76817 6.11789 34901 ft 487 kts 91°
2026-05-07 20:02 36.77191 6.20218 34898 ft 487 kts 92°
2026-05-07 20:03 36.77559 6.28642 34907 ft 486 kts 92°
2026-05-07 20:03 36.77926 6.37108 34901 ft 487 kts 92°
2026-05-07 20:04 36.78281 6.45490 34900 ft 487 kts 92°
2026-05-07 20:04 36.78631 6.53940 34907 ft 488 kts 92°
2026-05-07 20:05 36.78972 6.62402 34909 ft 488 kts 92°
2026-05-07 20:05 36.79308 6.70871 34901 ft 489 kts 92°
2026-05-07 20:06 36.79638 6.79295 34901 ft 489 kts 92°
2026-05-07 20:06 36.79964 6.87769 34915 ft 488 kts 92°
2026-05-07 20:07 36.80281 6.96232 34889 ft 488 kts 92°
2026-05-07 20:07 36.80593 7.04710 34901 ft 488 kts 92°
2026-05-07 20:08 36.80895 7.13160 34922 ft 490 kts 92°
2026-05-07 20:08 36.81193 7.21692 34908 ft 494 kts 92°
2026-05-07 20:09 36.81493 7.30190 34900 ft 488 kts 92°
2026-05-07 20:10 36.81921 7.42939 34912 ft 491 kts 92°
2026-05-07 20:10 36.82200 7.51463 34883 ft 492 kts 92°
2026-05-07 20:11 36.82473 7.59973 34885 ft 493 kts 92°
2026-05-07 20:11 36.82742 7.68534 34882 ft 494 kts 92°
2026-05-07 20:11 36.82875 7.72817 34723 ft 492 kts 92°
2026-05-07 20:12 36.83008 7.77068 34430 ft 484 kts 92°
2026-05-07 20:12 36.83135 7.81228 34172 ft 475 kts 92°
2026-05-07 20:12 36.83221 7.85282 33761 ft 470 kts 93°
2026-05-07 20:12 36.83269 7.89346 33221 ft 468 kts 93°
2026-05-07 20:13 36.83292 7.93403 32634 ft 467 kts 93°
2026-05-07 20:13 36.83300 7.97462 32029 ft 466 kts 93°
2026-05-07 20:13 36.83302 8.01510 31430 ft 466 kts 93°
2026-05-07 20:13 36.83300 8.05554 30833 ft 466 kts 92°
2026-05-07 20:14 36.83299 8.09595 30294 ft 464 kts 92°
2026-05-07 20:14 36.83298 8.13608 29790 ft 460 kts 92°
2026-05-07 20:14 36.83299 8.17587 29240 ft 457 kts 92°
2026-05-07 20:14 36.83303 8.21545 28680 ft 454 kts 92°
2026-05-07 20:15 36.83308 8.25427 28148 ft 451 kts 92°
2026-05-07 20:15 36.83315 8.29334 27634 ft 448 kts 92°
2026-05-07 20:15 36.83322 8.33211 27134 ft 445 kts 92°
2026-05-07 20:15 36.83329 8.37062 26639 ft 441 kts 92°
2026-05-07 20:16 36.83334 8.40879 26172 ft 438 kts 92°
2026-05-07 20:16 36.83339 8.44665 25698 ft 435 kts 92°
2026-05-07 20:16 36.83343 8.48441 25242 ft 431 kts 92°
2026-05-07 20:16 36.83345 8.52169 24799 ft 428 kts 92°
2026-05-07 20:17 36.83347 8.55869 24369 ft 425 kts 92°
2026-05-07 20:17 36.83348 8.59539 23946 ft 421 kts 92°
2026-05-07 20:17 36.83347 8.63189 23526 ft 418 kts 92°
2026-05-07 20:17 36.83352 8.66753 23039 ft 415 kts 92°
2026-05-07 20:18 36.83368 8.70346 22515 ft 412 kts 92°
2026-05-07 20:18 36.83390 8.73916 21997 ft 410 kts 92°
2026-05-07 20:18 36.83415 8.77464 21504 ft 407 kts 92°
2026-05-07 20:18 36.83440 8.80981 21043 ft 403 kts 92°
2026-05-07 20:19 36.83464 8.84470 20557 ft 400 kts 92°
2026-05-07 20:19 36.83488 8.87933 20085 ft 397 kts 93°
2026-05-07 20:19 36.83504 8.91388 19590 ft 395 kts 94°
2026-05-07 20:19 36.83410 8.94793 19125 ft 391 kts 97°
2026-05-07 20:20 36.83229 8.98161 18673 ft 387 kts 98°
2026-05-07 20:20 36.83037 9.01498 18207 ft 385 kts 98°
2026-05-07 20:20 36.82847 9.04820 17672 ft 382 kts 98°
2026-05-07 20:20 36.82659 9.08082 17161 ft 379 kts 98°
2026-05-07 20:21 36.82466 9.11389 16693 ft 375 kts 98°
2026-05-07 20:21 36.82274 9.14615 16228 ft 372 kts 98°
2026-05-07 20:21 36.82089 9.17787 15781 ft 369 kts 98°
2026-05-07 20:21 36.81902 9.20965 15321 ft 366 kts 98°
2026-05-07 20:22 36.81716 9.24118 14866 ft 363 kts 97°
2026-05-07 20:22 36.81528 9.27256 14420 ft 360 kts 98°
2026-05-07 20:22 36.81341 9.30358 13980 ft 357 kts 98°
2026-05-07 20:22 36.81153 9.33436 13507 ft 354 kts 98°
2026-05-07 20:23 36.80964 9.36492 12994 ft 352 kts 98°
2026-05-07 20:23 36.80776 9.39521 12505 ft 349 kts 98°
2026-05-07 20:23 36.80591 9.42491 12025 ft 346 kts 98°
2026-05-07 20:23 36.80403 9.45484 11543 ft 344 kts 98°
2026-05-07 20:24 36.80218 9.48455 11105 ft 341 kts 98°
2026-05-07 20:24 36.80034 9.51410 10910 ft 340 kts 98°
2026-05-07 20:24 36.79850 9.54348 10530 ft 339 kts 98°
2026-05-07 20:24 36.79669 9.57242 10095 ft 336 kts 98°
2026-05-07 20:25 36.79493 9.60100 9879 ft 325 kts 98°
2026-05-07 20:25 36.79324 9.62883 9551 ft 318 kts 98°
2026-05-07 20:25 36.79159 9.65619 9164 ft 314 kts 98°
2026-05-07 20:25 36.78993 9.68323 8752 ft 310 kts 98°
2026-05-07 20:26 36.78829 9.70984 8366 ft 306 kts 98°
2026-05-07 20:26 36.78665 9.73628 7967 ft 303 kts 98°
2026-05-07 20:26 36.78502 9.76214 7571 ft 300 kts 98°
2026-05-07 20:26 36.78338 9.78799 7188 ft 297 kts 98°
2026-05-07 20:27 36.78173 9.81355 6827 ft 294 kts 98°
2026-05-07 20:27 36.78008 9.83874 6469 ft 290 kts 98°
2026-05-07 20:27 36.77842 9.86371 6079 ft 287 kts 98°
2026-05-07 20:27 36.77674 9.88832 5699 ft 283 kts 98°
2026-05-07 20:28 36.77504 9.91270 5321 ft 280 kts 98°
2026-05-07 20:28 36.77322 9.93666 5006 ft 275 kts 101°
2026-05-07 20:28 36.76887 9.95966 4748 ft 271 kts 110°
2026-05-07 20:28 36.76292 9.98156 4341 ft 268 kts 112°
2026-05-07 20:29 36.75659 10.00329 4044 ft 265 kts 112°
2026-05-07 20:29 36.75017 10.02483 3986 ft 265 kts 112°
2026-05-07 20:29 36.74368 10.04641 3984 ft 267 kts 112°
2026-05-07 20:29 36.73715 10.06804 3987 ft 266 kts 112°
2026-05-07 20:30 36.73060 10.08972 3984 ft 266 kts 112°
2026-05-07 20:30 36.72410 10.11131 3989 ft 266 kts 112°
2026-05-07 20:30 36.71758 10.13291 3987 ft 266 kts 112°
2026-05-07 20:30 36.71106 10.15451 3991 ft 266 kts 112°
2026-05-07 20:31 36.70454 10.17606 3986 ft 266 kts 112°
2026-05-07 20:31 36.69804 10.19753 3983 ft 266 kts 112°
2026-05-07 20:31 36.69149 10.21911 3988 ft 266 kts 112°
2026-05-07 20:31 36.68493 10.24063 3985 ft 266 kts 112°
2026-05-07 20:32 36.67844 10.26190 3987 ft 266 kts 112°
2026-05-07 20:32 36.67182 10.28352 3988 ft 266 kts 112°
2026-05-07 20:32 36.66522 10.30507 3981 ft 266 kts 112°
2026-05-07 20:32 36.65859 10.32669 3985 ft 266 kts 112°
2026-05-07 20:33 36.65218 10.34838 3979 ft 267 kts 108°
2026-05-07 20:33 36.64902 10.37114 3889 ft 268 kts 91°
2026-05-07 20:33 36.65238 10.39392 3770 ft 270 kts 72°
2026-05-07 20:33 36.65978 10.41537 3643 ft 270 kts 64°
2026-05-07 20:34 36.66897 10.43579 3529 ft 270 kts 60°
2026-05-07 20:34 36.67887 10.45546 3372 ft 264 kts 58°
2026-05-07 20:34 36.69016 10.47307 3006 ft 264 kts 42°
2026-05-07 20:34 36.70571 10.48485 2703 ft 262 kts 20°
2026-05-07 20:35 36.72367 10.48774 2350 ft 264 kts 353°
2026-05-07 20:35 36.74067 10.47944 2192 ft 266 kts 327°
2026-05-07 20:35 36.75509 10.46614 2176 ft 249 kts 321°
2026-05-07 20:35 36.76800 10.45292 2183 ft 232 kts 320°
2026-05-07 20:36 36.77903 10.43919 2186 ft 217 kts 306°
2026-05-07 20:36 36.78631 10.42295 2199 ft 211 kts 291°
2026-05-07 20:36 36.79125 10.40715 2226 ft 180 kts 290°
2026-05-07 20:36 36.79553 10.39389 2207 ft 151 kts 290°
2026-05-07 20:37 36.79953 10.38188 2214 ft 152 kts 290°
2026-05-07 20:37 36.80362 10.36973 2167 ft 155 kts 291°
2026-05-07 20:37 36.80783 10.35734 1978 ft 155 kts 291°
2026-05-07 20:37 36.81200 10.34487 1763 ft 155 kts 291°
2026-05-07 20:38 36.81612 10.33244 1555 ft 155 kts 290°
2026-05-07 20:38 36.82022 10.32005 1344 ft 154 kts 291°
2026-05-07 20:38 36.82431 10.30776 1136 ft 153 kts 291°
2026-05-07 20:38 36.82839 10.29551 928 ft 152 kts 291°
2026-05-07 20:39 36.83239 10.28349 719 ft 148 kts 292°
2026-05-07 20:39 36.83630 10.27173 518 ft 145 kts 292°
2026-05-07 20:39 36.84013 10.26021 320 ft 143 kts 292°
2026-05-07 20:39 36.84385 10.24893 128 ft 142 kts 292°
2026-05-07 20:40 36.84752 10.23766 35 ft 133 kts 293°
2026-05-07 20:40 36.85043 10.22905 33 ft 81 kts 292°
2026-05-07 20:40 36.85201 10.22470 37 ft 29 kts 290°
2026-05-07 20:40 36.85222 10.22397 37 ft 2 kts 290°
2026-05-07 20:41 36.85234 10.22358 35 ft 13 kts 291°
2026-05-07 20:41 36.85242 10.22217 34 ft 17 kts 235°
2026-05-07 20:41 36.85143 10.22155 34 ft 15 kts 200°
2026-05-07 20:41 36.85069 10.22185 34 ft 10 kts 117°
2026-05-07 20:42 36.85041 10.22265 34 ft 10 kts 114°
2026-05-07 20:42 36.85011 10.22347 34 ft 11 kts 119°
2026-05-07 20:42 36.84948 10.22383 34 ft 11 kts 189°
2026-05-07 20:42 36.84875 10.22355 33 ft 11 kts 196°
2026-05-07 20:43 36.84800 10.22338 33 ft 11 kts 192°
2026-05-07 20:43 36.84720 10.22317 33 ft 12 kts 192°
2026-05-07 20:43 36.84637 10.22295 33 ft 13 kts 192°
2026-05-07 20:43 36.84550 10.22270 31 ft 13 kts 195°
2026-05-07 20:44 36.84488 10.22203 33 ft 11 kts 274°
2026-05-07 20:44 36.84499 10.22108 33 ft 11 kts 262°
2026-05-07 20:44 36.84460 10.22027 33 ft 11 kts 232°
2026-05-07 20:44 36.84434 10.21971 33 ft 11 kts 252°
2026-05-07 20:45 36.84440 10.21899 33 ft 8 kts 283°
2026-05-07 20:45 36.84470 10.21876 33 ft 4 kts
2026-05-07 20:45 36.84501 10.21879 33 ft 5 kts
2026-05-07 20:45 36.84533 10.21881 33 ft 0 kts